User: anonymous   Login
Location: Fort Frances
(48.6170°N, 93.4170°W)
Time: 13:49:32
(UTC-05:00)
Language:

Iridium 53 - Orbit

View from above orbital plane
View from above orbital plane
View from above satellite
View from above satellite

Ground track
Ground track

The orbit data is extracted from the following two-line orbital elements,

1 25173U 98010E   15245.57784689 +.00000005 +00000-0 -52018-5 0  9994
2 25173 086.3924 263.5288 0002347 092.1875 066.4640 14.34217095917801
Epoch (UTC): 02 September 2015 13:52:05
Eccentricity: 0.0002347
inclination: 86.3924°
perigee height: 776 km
apogee height: 779 km
right ascension of ascending node: 263.5288°
argument of perigee: 92.1875°
revolutions per day: 14.34217095
mean anomaly at epoch: 66.4640°
orbit number at epoch: 91780

The dashed part of the orbit path shows where the satellite is in the earth's shadow,  

DLR